Grinnell, IA

5:07 AM CDT on April 21, 2018 (GMT -0500)
Grinnell Regional

Weather History for KGGI - November, 2012

Change the Weather History Date:

Friday, November 23, 2012

  Actual Average (KTNU) Record (KTNU)
Temperature  
Mean Temperature 28 °F -  
Max Temperature 37 °F 42 °F 60 °F (1988)
Min Temperature 19 °F 25 °F 5 °F (1970)
Degree Days  
Heating Degree Days 36    
Moisture  
Dew Point 17 °F    
Average Humidity 60    
Maximum Humidity 78    
Minimum Humidity 49    
Precipitation  
Precipitation 0.00 in - - ()
Sea Level Pressure  
Sea Level Pressure 30.27 in    
Wind  
Wind Speed 22 mph (WNW)    
Max Wind Speed 34 mph    
Max Gust Speed 44 mph    
Visibility 10 miles    
Events      
Averages and records for this station are not official NWS values.
T = Trace of Precipitation, MM = Missing Value Source: NWS Daily Summary

Daily Weather History Graph

Daily Weather History Graph

Search for Another Location

Airport or City:

Astronomy

Nov. 23, 2012 Rise Set
Actual Time 7:10 AM CST 4:44 PM CST
Civil Twilight 6:39 AM CST 5:14 PM CST
Nautical Twilight 6:05 AM CST 5:49 PM CST
Astronomical Twilight 5:32 AM CST 6:22 PM CST
Moon 2:02 PM CST (11/23) 2:26 AM CST (11/23)
Length of Visible Light 10h 35m
Length of Day
9h 34m
Waxing Gibbous, 80% of the Moon is Illuminated
Nov 23
Waxing Gibbous
Nov 28
Full
Dec 6
Last Quarter
Dec 13
New
Dec 19
First Quarter

Hourly Weather History & Observations

Time (CST) Temp. Windchill Dew Point Humidity Pressure Visibility Wind Dir Wind Speed Gust Speed Precip Events Conditions
12:15 AM 37.6 °F 28.1 °F 28.2 °F 69% 30.10 in 10.0 mi West 17.3 mph 23.0 mph N/A   Clear
12:35 AM 37.6 °F 26.3 °F 25.9 °F 63% 30.10 in 10.0 mi WNW 24.2 mph 33.4 mph N/A   Clear
12:55 AM 36.7 °F 26.6 °F 25.5 °F 64% 30.10 in 10.0 mi West 18.4 mph 26.5 mph N/A   Scattered Clouds
1:15 AM 37.0 °F 26.2 °F 23.5 °F 58% 30.11 in 10.0 mi WNW 21.9 mph 33.4 mph N/A   Overcast
1:55 AM 36.7 °F 26.6 °F 22.3 °F 56% 30.11 in 10.0 mi WNW 18.4 mph 28.8 mph N/A   Overcast
2:15 AM 36.5 °F 24.4 °F 22.1 °F 56% 30.12 in 10.0 mi WNW 26.5 mph 32.2 mph N/A   Overcast
2:35 AM 36.5 °F 25.7 °F 22.5 °F 57% 30.12 in 10.0 mi WNW 20.7 mph 29.9 mph N/A   Overcast
2:55 AM 36.1 °F 24.2 °F 22.1 °F 57% 30.13 in 10.0 mi West 25.3 mph 34.5 mph N/A   Overcast
3:15 AM 34.3 °F 20.8 °F 20.1 °F 56% 30.14 in 10.0 mi WNW 29.9 mph 38.0 mph N/A   Mostly Cloudy
3:35 AM 33.8 °F 19.9 °F 20.3 °F 58% 30.14 in 10.0 mi WNW 31.1 mph 42.6 mph N/A   Mostly Cloudy
3:55 AM 33.1 °F 19.3 °F 20.5 °F 60% 30.15 in 10.0 mi WNW 28.8 mph 42.6 mph N/A   Overcast
4:15 AM 32.7 °F 18.4 °F 20.5 °F 61% 30.16 in 10.0 mi WNW 31.1 mph 43.7 mph N/A   Overcast
4:35 AM 32.2 °F 17.2 °F 19.9 °F 61% 30.16 in 10.0 mi WNW 33.4 mph 39.1 mph N/A   Overcast
4:55 AM 32.0 °F 17.6 °F 19.4 °F 60% 30.17 in 10.0 mi WNW 29.9 mph 38.0 mph N/A   Overcast
5:15 AM 31.1 °F 18.0 °F 19.0 °F 61% 30.18 in 10.0 mi WNW 23.0 mph 38.0 mph N/A   Mostly Cloudy
5:35 AM 30.7 °F 15.9 °F 19.4 °F 63% 30.19 in 10.0 mi WNW 29.9 mph 36.8 mph N/A   Scattered Clouds
5:55 AM 29.1 °F 15.1 °F 18.1 °F 64% 30.20 in 10.0 mi NW 24.2 mph 32.2 mph N/A   Clear
6:15 AM 28.4 °F 13.0 °F 17.6 °F 64% 30.21 in 10.0 mi WNW 28.8 mph 34.5 mph N/A   Clear
6:35 AM 27.9 °F 11.8 °F 16.7 °F 63% 30.21 in 10.0 mi WNW 31.1 mph 40.3 mph N/A   Clear
6:55 AM 27.3 °F 12.7 °F 17.4 °F 66% 30.22 in 10.0 mi WNW 24.2 mph 33.4 mph N/A   Clear
7:15 AM 26.8 °F 10.5 °F 16.3 °F 65% 30.23 in 10.0 mi WNW 29.9 mph 39.1 mph N/A   Clear
7:35 AM 26.6 °F 11.1 °F 16.3 °F 65% 30.23 in 10.0 mi WNW 26.5 mph 33.4 mph N/A   Clear
7:55 AM 26.6 °F 12.0 °F 16.9 °F 67% 30.24 in 10.0 mi WNW 23.0 mph 27.6 mph N/A   Clear
8:15 AM 27.3 °F 12.1 °F 17.2 °F 66% 30.25 in 10.0 mi WNW 26.5 mph 32.2 mph N/A   Clear
8:35 AM 27.3 °F 11.8 °F 15.8 °F 62% 30.26 in 10.0 mi NW 27.6 mph 36.8 mph N/A   Scattered Clouds
9:15 AM 27.0 °F 9.8 °F 15.1 °F 61% 30.27 in 10.0 mi WNW 34.5 mph 42.6 mph N/A   Scattered Clouds
9:35 AM 27.5 °F 11.3 °F 14.9 °F 59% 30.29 in 10.0 mi NW 31.1 mph 38.0 mph N/A   Scattered Clouds
9:55 AM 28.2 °F 12.2 °F 15.1 °F 58% 30.30 in 10.0 mi WNW 31.1 mph 40.3 mph N/A   Scattered Clouds
10:15 AM 28.4 °F 14.1 °F 15.1 °F 57% 30.31 in 10.0 mi NW 24.2 mph 38.0 mph N/A   Scattered Clouds
10:35 AM 29.1 °F 14.2 °F 15.4 °F 57% 30.32 in 10.0 mi WNW 27.6 mph 35.7 mph N/A   Mostly Cloudy
10:55 AM 28.8 °F 14.0 °F 15.1 °F 57% 30.32 in 10.0 mi WNW 26.5 mph 33.4 mph N/A   Mostly Cloudy
11:15 AM 29.5 °F 14.2 °F 15.1 °F 55% 30.32 in 10.0 mi WNW 29.9 mph 35.7 mph N/A   Mostly Cloudy
11:35 AM 30.2 °F 15.2 °F 15.3 °F 54% 30.31 in 10.0 mi NW 29.9 mph 38.0 mph N/A   Scattered Clouds
11:55 AM 29.5 °F 15.0 °F 14.9 °F 55% 30.31 in 10.0 mi WNW 26.5 mph 34.5 mph N/A   Scattered Clouds
12:15 PM 31.1 °F 17.2 °F 15.3 °F 52% 30.31 in 10.0 mi WNW 26.5 mph 33.4 mph N/A   Scattered Clouds
12:35 PM 30.6 °F 17.3 °F 14.9 °F 52% 30.32 in 10.0 mi WNW 23.0 mph 33.4 mph N/A   Scattered Clouds
12:55 PM 31.3 °F 19.2 °F 15.4 °F 52% 30.32 in 10.0 mi WNW 19.6 mph 31.1 mph N/A   Scattered Clouds
1:15 PM 31.6 °F 19.0 °F 15.6 °F 52% 30.32 in 10.0 mi NW 21.9 mph 33.4 mph N/A   Scattered Clouds
1:35 PM 32.0 °F 19.8 °F 15.4 °F 51% 30.31 in 10.0 mi WNW 20.7 mph 29.9 mph N/A   Scattered Clouds
1:55 PM 32.0 °F 18.4 °F 15.4 °F 51% 30.32 in 10.0 mi WNW 26.5 mph 32.2 mph N/A   Clear
2:15 PM 32.7 °F 19.9 °F 15.8 °F 50% 30.32 in 10.0 mi West 24.2 mph 29.9 mph N/A   Clear
2:35 PM 32.5 °F 19.4 °F 15.6 °F 50% 30.32 in 10.0 mi WNW 25.3 mph 29.9 mph N/A   Clear
2:55 PM 32.7 °F 19.6 °F 15.8 °F 50% 30.32 in 10.0 mi WNW 25.3 mph 32.2 mph N/A   Clear
3:15 PM 32.9 °F 20.1 °F 15.4 °F 49% 30.33 in 10.0 mi WNW 24.2 mph 28.8 mph N/A   Clear
3:35 PM 32.9 °F 21.3 °F 15.6 °F 49% 30.34 in 10.0 mi WNW 19.6 mph 28.8 mph N/A   Clear
3:55 PM 32.0 °F 18.6 °F 15.1 °F 50% 30.34 in 10.0 mi WNW 25.3 mph 29.9 mph N/A   Clear
4:15 PM 32.0 °F 20.5 °F 15.3 °F 50% 30.34 in 10.0 mi WNW 18.4 mph 27.6 mph N/A   Clear
4:35 PM 31.1 °F 19.7 °F 15.1 °F 52% 30.34 in 10.0 mi WNW 17.3 mph 27.6 mph N/A   Clear
4:55 PM 30.0 °F 19.1 °F 14.9 °F 53% 30.35 in 10.0 mi WNW 15.0 mph - N/A   Clear
5:15 PM 29.3 °F 18.6 °F 15.1 °F 55% 30.35 in 10.0 mi WNW 13.8 mph - N/A   Clear
5:35 PM 28.9 °F 18.6 °F 15.3 °F 57% 30.35 in 10.0 mi WNW 12.7 mph - N/A   Clear
5:55 PM 28.4 °F 17.5 °F 15.3 °F 58% 30.36 in 10.0 mi WNW 13.8 mph - N/A   Clear
6:35 PM 27.0 °F 17.3 °F 15.3 °F 61% 30.36 in 10.0 mi WNW 10.4 mph - N/A   Clear
6:55 PM 26.6 °F 16.2 °F 15.3 °F 62% 30.36 in 10.0 mi WNW 11.5 mph - N/A   Clear
7:15 PM 25.7 °F 15.7 °F 15.4 °F 65% 30.36 in 10.0 mi WNW 10.4 mph - N/A   Clear
7:35 PM 25.5 °F 15.5 °F 15.3 °F 65% 30.36 in 10.0 mi WNW 10.4 mph - N/A   Clear
7:55 PM 24.8 °F 13.4 °F 15.3 °F 67% 30.36 in 10.0 mi WNW 12.7 mph 17.3 mph N/A   Clear
8:15 PM 24.8 °F 14.0 °F 14.9 °F 66% 30.36 in 10.0 mi WNW 11.5 mph - N/A   Clear
8:35 PM 24.6 °F 12.7 °F 14.9 °F 67% 30.36 in 10.0 mi WNW 13.8 mph - N/A   Clear
8:55 PM 23.9 °F 13.5 °F 14.9 °F 69% 30.36 in 10.0 mi WNW 10.4 mph - N/A   Clear
9:15 PM 23.4 °F 13.5 °F 14.9 °F 70% 30.36 in 10.0 mi WNW 9.2 mph - N/A   Clear
9:35 PM 23.0 °F 13.1 °F 14.9 °F 71% 30.36 in 10.0 mi WNW 9.2 mph - N/A   Clear
9:55 PM 22.3 °F 11.5 °F 14.9 °F 73% 30.36 in 10.0 mi WNW 10.4 mph - N/A   Clear
10:15 PM 21.9 °F 12.5 °F 14.7 °F 74% 30.36 in 10.0 mi WNW 8.1 mph - N/A   Clear
10:55 PM 21.2 °F 10.9 °F 14.5 °F 75% 30.36 in 10.0 mi WNW 9.2 mph - N/A   Clear
11:15 PM 21.0 °F 11.4 °F 14.5 °F 76% 30.35 in 10.0 mi WNW 8.1 mph - N/A   Clear
11:35 PM 20.7 °F 10.2 °F 14.4 °F 77% 30.35 in 10.0 mi WNW 9.2 mph - N/A   Clear
11:55 PM 19.8 °F 9.1 °F 14.0 °F 78% 30.35 in 10.0 mi WNW 9.2 mph - N/A   Clear